Location: Byszew
(52.1813°N, 19.2693°E)
Time: 05:42:09
(UTC+00:00)

CAS-4B - Pass Details

Date: 04 July 2022
Orbit: 522 x 536 km, 43.0° (Epoch: 17 August)

Event Time Altitude Azimuth Distance (km) Brightness Sun altitude
Exits shadow 00:33:03 16° 185° (S) 1,422 ? -11.5°
Maximum altitude 00:34:10 18° 164° (SSE) 1,346 ? -11.4°
Drops below altitude 10° 00:36:53 10° 122° (ESE) 1,762 ? -11.2°
Sets 00:39:40 0° 103° (ESE) 2,656 ? -11.0°
